User: anonymous   Login
Location: Glen Waverley
(37.8830°S, 145.1670°E)
Time: 10:51:34
(UTC+10:00)
Language:

ISS - Orbit

View from above orbital plane
View from above orbital plane
View from above satellite
View from above satellite

Ground track
Ground track

The orbit data is extracted from the following two-line orbital elements,

1 25544U 98067A   22273.86699611  .00014757  00000-0  26205-3 0  9994
2 25544  51.6446 172.9999 0002611 316.9351 132.2517 15.50432416361576
Epoch (UTC): 30 September 2022 20:48:28
Eccentricity: 0.0002611
inclination: 51.6446°
perigee height: 413 km
apogee height: 417 km
right ascension of ascending node: 172.9999°
argument of perigee: 316.9351°
revolutions per day: 15.50432416
mean anomaly at epoch: 132.2517°
orbit number at epoch: 36157

The dashed part of the orbit path shows where the satellite is in the earth's shadow,  

DLR